TITAN 3C TRANSTAGE DEB, 28819

Orbit data source: Space-Track

TITAN 3C TRANSTAGE DEB, 28819 is space debris in HEO originally from a launch on Tue, 21 Dec 1965 UTC launched from the Air Force Eastern Test Range (AFETR). Debris objects in space refer to the collection of defunct objects orbiting the Earth. Examples of debris include non-operational satellites, rocket bodies, and fragments generated from explosions, collisions, or faulty payload assembly.

Loading next visibility...
Identifier
28819, 1965-108CG
Orbit
HEO
Country
Flag of USUS
Related business
Manufacturer
Unknown
Mission
Spacecraft
Bus & Motor
Unknown
Mass
Unknown
Launch date (UTC)
1965-12-21 (60 years ago)
Launch vehicle
Unknown
Launch site
Air Force Eastern Test Range (AFETR)
Object type
Payload
Rocket body
Debris
Shape & HBR
Unknown shape, 1.1 m
Radar Cross Section
Medium (>0.1 m² and <1 m²)

Expand to show TLE details & history
Last TLE update: 1 week ago

TLE from 1 week ago
0 TITAN 3C TRANSTAGE DEB
1 28819U 65108CG  26151.37996124  .00000018  00000-0  69363-3 0  9993
2 28819  26.8276 191.9970 6726702  50.0751   8.5872  2.70703279216595
Epoch: 2026-05-31T09:07Z
TLE epoch observation values (Epoch: 2026-05-31T09:07:08.651Z)
Latitude
26.24091°
Longitude
-89.57804°
Altitude
2,050.464 km
Speed
8.734 km/s
True Right ascension
19h 44m 21s
True Declination
26° 07' 32"
Sunlit
Object was in daylight at epoch
Visualization orbit readout
Latitude
Unknown
Longitude
Unknown
Altitude
Unknown
Speed
Unknown
Apparent Right ascension
Unknown
Apparent Declination
Unknown
Sunlit
N/A
Visualization observer readout
Local Sidereal Time
18:42:44
Azimuth
Unknown
Elevation
Unknown
Doppler factor
Unknown
Orbital elements
Apogee altitude
30,003.822 km
Perigee altitude
741.557 km
Semi-major axis
21,750.826 km
Eccentricity
0.67267
Inclination
26.8276°
RAAN
191.997°
Arg. of periapsis
50.0751°
True anomaly
52.62794°
Mean anomaly
8.5872°
Eccentric anomaly
24.68015°
Mean motion
0.6766 °/min
Orbital period
532.08 mins
BSTAR
0.00069363
Loading maneuver chart data...
Computing Atmospheric mass density...

Documentation

Showing up to 5 results
|